weather.gov     
National Weather Service

Terminal Aerodrome Forecast
NWS Homepage
This page is being discontinued on March 12, 2014.
The same data is available at this site. Please update your bookmarks.
Thank you, and we apologize for the inconvenience.
Please send an email to SR-SRH.Webmaster@noaa.gov with any concerns.


Current Version
Previous Version:    01  02  03  04  05  06  07  08  09  10  11  12  13  14  15  16  17  18  19  20  21  22  23  24  25  26  27  
[Printable]
197
FTUS45 KFGZ 201100
TAFINW
TAF
KINW 201138Z 2012/2112 VRB06KT P6SM SCT100
     FM202100 VRB10G20KT P6SM VCTS SCT080CB OVC150
      TEMPO 2023/2103 VRB20G35KT 3SM TSRA OVC060CB
     FM210500 VRB05KT P6SM VCSH BKN080=


U.S. Dept. of Commerce
NOAA National Weather Service
1325 East West Highway
Silver Spring, MD 20910
E-mail: w-nws.webmaster@noaa.gov
Page last modified: May 16, 2007
NATIONAL WEATHER SERVICE: for Safety, for Work, for Fun - FOR LIFE